Regional Weather Roundup
Issued by NWS Newport/Morehead, NC

Current Version | Previous Version | Graphics & Text | Print | Product List | Glossary On
Versions: 1 2 3 4 5 6 7 8 9 10 11 12 13 14 15 16 17 18 19 20 21 22 23 24 25 26 27 28 29 30 31 32 33 34 35 36 37 38 39 40 41 42 43 44 45 46 47 48 49 50
000 ASUS42 KMHX 221922 RWRMHX WEATHER ROUNDUP FOR EASTERN NORTH CAROLINA NATIONAL WEATHER SERVICE NEWPORT/MOREHEAD CITY NC 200 PM EST SAT NOV 22 2014 NOTE: "FAIR" INDICATES FEW OR NO CLOUDS BELOW 12,000 FEET WITH NO SIGNIFICANT WEATHER AND/OR OBSTRUCTIONS TO VISIBILITY NCZ015>017-031-032-045>047-102-103-222000- NORTH COAST CITY SKY/WX TMP DP RH WIND PRES REMARKS EDENTON SUNNY 53 26 34 SW5 30.44F ELIZABETH CITY SUNNY 54 23 30 S10 30.45F KITTY HAWK CLEAR 51 33 48 NW5 30.43F MANTEO SUNNY 49 32 51 SW5 30.45F $$ NCZ045>047-081-094-103-104-222000- CENTRAL COAST CITY SKY/WX TMP DP RH WIND PRES REMARKS FRISCO SUNNY 52 41 66 N5 30.46F SWANQUARTER N/A 54 N/A N/A S6 30.41F $$ NCZ095-097-098-100-101-222000- SOUTHERN COAST CITY SKY/WX TMP DP RH WIND PRES REMARKS BEAUFORT SUNNY 59 35 40 CALM 30.45F CEDAR ISLAND N/A 48 N/A N/A NE6 30.50S JACKSONVILLE SUNNY 56 32 40 E6 30.44F PINEY ISLAND CLEAR 50 37 61 E8 30.46F WILMINGTON SUNNY 57 43 59 S3 30.44F $$ NCZ011>013-027>030-043-044-078>080-089-090>093-098-222000- COASTAL PLAIN CITY SKY/WX TMP DP RH WIND PRES REMARKS AHOSKIE SUNNY 52 13 21 S5 30.44F CLINTON SUNNY 58 28 31 E6 30.43F ELIZABETHTOWN SUNNY 58 26 29 SE6 30.43F GOLDSBORO SUNNY 56 16 20 CALM 30.42F GREENVILLE SUNNY 55 12 18 CALM 30.44F HAVELOCK SUNNY 58 32 37 VRB3 30.46F KENANSVILLE SUNNY 56 23 27 CALM 30.45F KINSTON SUNNY 55 18 22 CALM 30.45F NEW BERN SUNNY 59 27 29 CALM 30.46F RICHLANDS SUNNY 57 27 30 SW3 30.44F ROCKY MOUNT SUNNY 53 9 17 VRB7 30.45F WASHINGTON SUNNY 54 14 20 CALM 30.44F WHITEVILLE SUNNY 57 32 38 CALM 30.43F $$ AMZ130-135-150-152-154-156-158-170-250-252-270-ANZ085-086-088-633-658-670-222000- MARINE OBSERVATIONS STATION/POSITION TIME TEMP WIND PRES WAVE SWELL AIR SEA DIR/SP/G HT/PER HT/PER (UTC) (F) (DEG/KT/KT) (MB) (FT/S) (FT/S) CHESAPEAKE LIGHT 1900 46 190/ 12/ 14 1031.0 64 E VA BEACH 1900 49 61 220/ 8/ 10 1031.0 2/ 8 2/ 8 DUCK 1900 49 55 170/ 6/ 7 1030.2 2 E DUCK 1900 56 N/A 2/ 7 10 NE DUCK 1800 57 N/A 2/ 6 OREGON INLET 1900 52 50 120/ 4/ 6 1031.1 13E OREGON INLT 1900 61 N/A 3/ 7 HATTERAS CG 1900 49 51 10/ 6/ 7 1031.4 DIAMOND BUOY 1900 57 20/ 6/ 8 1031.5 3/ 8 3/ 8 17 S OCRACOKE NOT AVBL CAPE LOOKOUT 1900 52 40/ 9/ 10 1031.0 BEAUFORT LAB 1900 55 52 160/ 6/ 7 1030.0 30 SE NEW RIVER 1900 54 69 40/ 10/ 14 1030.8 3/10 2/10 5 SE WRIGHTSVLE 1900 54 60 70/ 10/ 12 1030.8 225 S CAPE HAT 1803 64 73 80/ 10/ 14 1029.8 5/ 9 5/ 9 41 SE CHARLESTON 1900 64 75 50/ 16/ 19 1028.4 4/ 8 2/ 8 $$

USA.gov is the U.S. government's official web portal to all federal, state and local government web resources and services.